Regional Weather Roundup
Issued by NWS

Home | Current Version | Previous Version | Graphics & Text | Print | Product List | Glossary On
Versions: 1 2 3 4 5 6 7 8 9 10 11 12 13 14 15 16 17 18 19 20 21 22 23 24 25 26 27
000
ASUS45 KSLC 242010
RWRUT

UTAH REGIONAL WEATHER ROUNDUP
NATIONAL WEATHER SERVICE SALT LAKE CITY UT
100 PM MST FRI NOV 24 2017

UTZ001>011-023>025-242100-

NORTHERN UTAH

CITY           SKY/WX    TMP DP  RH WIND       PRES   REMARKS
BRIGHAM CITY   CLOUDY    55  39  55 N12       30.08R
HILL AFB       CLOUDY    56  36  48 W7        30.07F
LOGAN          LGT RAIN  52  41  66 N5        30.08R
OGDEN          CLOUDY    57  37  47 W8        30.07R
SALT LAKE CITY MOSUNNY   63  38  39 N7        30.06S
TOOELE VALLEY    N/A     63  37  39 N8        30.06F
WENDOVER       SUNNY     64  31  28 NW21G29   30.05F
HEBER CITY     CLOUDY    61  28  29 SW8G17    30.04R
WEST JORDAN    PTSUNNY   58  39  49 N7        30.07F

$$

UTZ011>015-024>027-242100-

CENTRAL/NORTHEAST UTAH

CITY           SKY/WX    TMP DP  RH WIND       PRES   REMARKS
PROVO AIRPORT  MOSUNNY   62  38  40 NW12      30.05S
MOAB/CANYONLAN SUNNY     60  33  36 NW7       30.01F
DELTA          SUNNY     66  27  22 N6        30.04S
PRICE          SUNNY     56  33  42 SE12      30.03F
RICHFIELD      SUNNY     68  25  19 W12G25    30.06F
ROOSEVELT      MOSUNNY   68  19  15 W29G41    29.99S
VERNAL         SUNNY     57  32  38 E6        29.99S

$$

UTZ013>016-019>022-027-242100-

SOUTHERN UTAH

CITY           SKY/WX    TMP DP  RH WIND       PRES   REMARKS
BRYCE CANYON   SUNNY     64  21  19 W24G36    30.14F
CEDAR CITY     SUNNY     71  25  17 VRB5      30.07F
MILFORD        SUNNY     68  30  24 S15       30.04F
ST GEORGE      PTCLDY    62  30  29 W3        30.03F
HANKSVILLE     SUNNY     55  28  35 CALM      30.04F
KANAB          SUNNY     68  27  21 S6        30.10F
BLANDING         N/A     57  28  33 S7        30.14F

$$

REGIONAL REPORTS     COLORADO/ARIZONA

CITY           SKY/WX    TMP DP  RH WIND       PRES   REMARKS
CRAIG, CO      SUNNY     62  30  29 W18G25    29.97F
GRAND JUNCTION SUNNY     57  34  41 CALM      30.02F
RIFLE, CO      CLOUDY    52  36  54 NE6       30.03F
MONTROSE, CO   CLOUDY    56  28  34 NW3       30.04F
CORTEZ, CO     SUNNY     64  30  27 SW7       30.07F
COLORADO CITY    N/A     70  30  23 W5        30.10F
PAGE, AZ       MOSUNNY   59  32  36 VRB3      30.04F
GRAND CANYON   SUNNY     66  23  19 W12G17    30.16F
KINGMAN, AZ    SUNNY     80  29  15 SW13      30.02F
FLAGSTAFF, AZ  SUNNY     68  15  13 W9G24     30.18F

$$

REGIONAL REPORTS    NEVADA/IDAHO/WYOMING

CITY           SKY/WX    TMP DP  RH WIND       PRES   REMARKS
LAS VEGAS, NV  PTSUNNY   72  37  28 E3        29.98F
ELY, NY        SUNNY     62  14  15 W18G24    30.12F
ELKO, NV       MOSUNNY   57  34  41 W16       30.12S
POCATELLO, ID  CLOUDY    47  44  90 SW18      30.07F
BURLEY, ID     CLOUDY    50  41  71 W17G29    30.07F
FORT BRIDGER,  CLOUDY    52  30  42 W26G35    30.09S
EVANSTON, WY   CLOUDY    48  29  47 W24G33    30.09R
ROCK SPRINGS,  CLOUDY    51  28  41 W30G40    30.01F
KEMMERER, WY   CLOUDY    41  34  75 NW18G30   30.07S

$$




USA.gov is the U.S. government's official web portal to all federal, state and local government web resources and services.